星链-4712 (STARLINK-4712 )

导读 | 豆包AI

STARLINK-4712是美国太空探索技术公司星链计划中的一颗卫星,于2022年9月11日发射升空,属于星链星座组网卫星,旨在为全球提供低延迟、高速率的宽带互联网服务。该卫星运行在近地轨道,依托星链星座的大规模组网,可覆盖偏远地区,补充全球互联网覆盖短板。

Basic Information
目录编号:
53798
目录名称:
STARLINK-4712
国际标识:
2022-111AB
轨道中心:
EARTH
卫星名称:
星链-4712
卫星全名:
星链-4712 (STARLINK-4712 )
卫星状态:
在轨 (已飞行1281 天)
发射日期:
2022-09-11 UTC
国别 :
美国 (US)
星等 :
--
Orbit Information
数据来源 国际轨道数据 AOE轨道数据
星历时间 2026-03-15T03:15:53+0800
14小时前
查看轨道信息
2026-03-14T03:00:00+0800
1天前
查看轨道信息
半长轴 6917.873km 6917.806km
偏心率 0.0001581 0.0001623
轨道倾角 53.217° 53.216°
近地点辐角 86.055° 82.390°
升交点赤经 250.772° 255.310°
平近点角 274.062° 182.986°
近地点 538.642km 538.546km
远地点 540.83km 540.792km
周期 95.437分钟 95.436分钟
每日圈数 15.088427 15.088646
Detailed Information
固有亮度:
5
最大亮度:
2.5
卫星平台:
Starlink v1.5
覆盖范围:
全球
运营商:
太空探索技术公司
运营商所在国:
美国
制造商(研发单位):
太空探索技术公司
制造商所在国:
美国
使用方式:
暂无
Satellite Introduction
星链(Starlink)计划是由太空探索技术公司(SpaceX)提出的一个巨型低轨卫星互联网星座项目,计划在2019年至2024年间在太空搭建由约1.2万颗卫星组成的“星链”网络,其中1584颗将部署在地球上空550千米处的近地轨道,并从2020年开始工作。该卫星仍在工作。
2D Orbit Map
3D Orbit Map
Orbit Altitude Analysis Chart
Orbit Inclination Analysis Chart
Orbit Comprehensive Analysis Chart
View Comprehensive Chart